KFB604 KTRM-KPHX

Flight info

Callsign KFB604
Flight time N/A
Altitude 35000
Route MECCA1 TRM SHADI BLH HYDRR1
Aircraft CL60/M-SADE3FGHIJ3J4J7P2RWXY/HB1D1

Departure

Time 2026-04-30 14:32
Airport Jacqueline Cochran Regional Airport (KTRM)

Arrival

Time N/A
Airport Phoenix Sky Harbor International Airport (KPHX)
Time Latitude Longitude Altitude Speed Heading
2026-04-30 14:07 33.63995 -116.16019 -71 ft 0 kts 221°
2026-04-30 14:26 33.63975 -116.16026 -69 ft 4 kts 143°
2026-04-30 14:27 33.63971 -116.15966 -69 ft 9 kts 90°
2026-04-30 14:27 33.63966 -116.15867 -69 ft 13 kts 121°
2026-04-30 14:27 33.63894 -116.15808 -70 ft 9 kts 96°
2026-04-30 14:28 33.63791 -116.15770 -71 ft 13 kts 182°
2026-04-30 14:28 33.63684 -116.15771 -72 ft 17 kts 180°
2026-04-30 14:28 33.63543 -116.15771 -73 ft 22 kts 179°
2026-04-30 14:28 33.63376 -116.15771 -75 ft 25 kts 180°
2026-04-30 14:29 33.62967 -116.15771 -79 ft 29 kts 178°
2026-04-30 14:29 33.62615 -116.15772 -81 ft 26 kts 180°
2026-04-30 14:30 33.61955 -116.15772 -86 ft 35 kts 178°
2026-04-30 14:31 33.61573 -116.15734 -90 ft 7 kts 76°
2026-04-30 14:31 33.61636 -116.15642 -90 ft 0 kts
2026-04-30 14:31 33.61637 -116.15642 -90 ft 4 kts
2026-04-30 14:32 33.63021 -116.15649 145 ft 168 kts 359°
2026-04-30 14:32 33.64240 -116.15641 1038 ft 184 kts
2026-04-30 14:32 33.65469 -116.15659 2168 ft 170 kts 360°
2026-04-30 14:33 33.66562 -116.15690 2909 ft 157 kts 360°
2026-04-30 14:33 33.69053 -116.15129 3994 ft 213 kts 43°
2026-04-30 14:33 33.69729 -116.13567 4554 ft 220 kts 85°
2026-04-30 14:34 33.69389 -116.11784 5148 ft 221 kts 115°
2026-04-30 14:34 33.68852 -116.10084 5768 ft 221 kts 102°
2026-04-30 14:34 33.68521 -116.08253 6428 ft 227 kts 101°
2026-04-30 14:34 33.68188 -116.06370 7172 ft 243 kts 102°
2026-04-30 14:35 33.67421 -116.02168 8678 ft 266 kts 103°
2026-04-30 14:35 33.67010 -115.99987 9437 ft 269 kts 104°
2026-04-30 14:35 33.66581 -115.97817 10190 ft 274 kts 105°
2026-04-30 14:36 33.66121 -115.95578 10918 ft 280 kts 105°
2026-04-30 14:36 33.65645 -115.93269 11556 ft 286 kts 105°
2026-04-30 14:36 33.65169 -115.90965 12171 ft 289 kts 105°
2026-04-30 14:36 33.64678 -115.88598 12814 ft 292 kts 105°
2026-04-30 14:37 33.64184 -115.86225 13442 ft 297 kts 106°
2026-04-30 14:37 33.63682 -115.83822 14067 ft 302 kts 106°
2026-04-30 14:37 33.63164 -115.81347 14705 ft 307 kts 106°
2026-04-30 14:37 33.62640 -115.78848 15330 ft 311 kts 107°
2026-04-30 14:38 33.62134 -115.76328 15959 ft 316 kts 102°
2026-04-30 14:38 33.61978 -115.73667 16588 ft 323 kts 92°
2026-04-30 14:38 33.61937 -115.70985 17206 ft 328 kts 92°
2026-04-30 14:38 33.61887 -115.68211 17837 ft 332 kts 93°
2026-04-30 14:39 33.61834 -115.65431 18468 ft 337 kts 93°
2026-04-30 14:39 33.61779 -115.62633 19090 ft 341 kts 93°
2026-04-30 14:39 33.61723 -115.59772 19722 ft 345 kts 93°
2026-04-30 14:40 33.61603 -115.53987 20983 ft 352 kts 94°
2026-04-30 14:40 33.61540 -115.51030 21595 ft 357 kts 94°
2026-04-30 14:40 33.61473 -115.47987 22117 ft 370 kts 94°
2026-04-30 14:40 33.61403 -115.44869 22604 ft 385 kts 94°
2026-04-30 14:41 33.61328 -115.41578 23107 ft 398 kts 94°
2026-04-30 14:41 33.61250 -115.38213 23603 ft 410 kts 94°
2026-04-30 14:41 33.61169 -115.34753 24100 ft 419 kts 95°
2026-04-30 14:41 33.61086 -115.31196 24603 ft 425 kts 95°
2026-04-30 14:42 33.61001 -115.27614 25107 ft 429 kts 95°
2026-04-30 14:42 33.60915 -115.24040 25611 ft 434 kts 95°
2026-04-30 14:42 33.60825 -115.20406 26037 ft 441 kts 96°
2026-04-30 14:42 33.60731 -115.16674 26303 ft 450 kts 95°
2026-04-30 14:43 33.60637 -115.12910 26560 ft 453 kts 96°
2026-04-30 14:43 33.60540 -115.09097 26802 ft 459 kts 96°
2026-04-30 14:43 33.60438 -115.05208 27009 ft 473 kts 95°
2026-04-30 14:43 33.60330 -115.01192 27020 ft 491 kts 95°
2026-04-30 14:44 33.60218 -114.97034 27007 ft 506 kts 95°
2026-04-30 14:44 33.60102 -114.92738 27000 ft 515 kts 95°
2026-04-30 14:44 33.59986 -114.88419 27000 ft 517 kts 95°
2026-04-30 14:44 33.59868 -114.84101 27005 ft 515 kts 95°
2026-04-30 14:45 33.59752 -114.79861 27001 ft 513 kts 95°
2026-04-30 14:45 33.59507 -114.75594 27001 ft 507 kts 103°
2026-04-30 14:45 33.58758 -114.71461 26996 ft 505 kts 108°
2026-04-30 14:45 33.57957 -114.67357 26997 ft 505 kts 108°
2026-04-30 14:46 33.57163 -114.63268 26990 ft 505 kts 108°
2026-04-30 14:46 33.56364 -114.59158 27002 ft 505 kts 108°
2026-04-30 14:46 33.55560 -114.55032 26993 ft 506 kts 108°
2026-04-30 14:46 33.55031 -114.50863 26760 ft 516 kts 93°
2026-04-30 14:47 33.54319 -114.46677 25994 ft 502 kts 109°
2026-04-30 14:47 33.53386 -114.42749 26026 ft 486 kts 106°